Temperature
16 17 17 17 14 12 13 14 15 16 17 19 20 20 19 19 19 20 21 21 21 20 18 17 16 16 16 16 16 16 16 16 16 16 16 15 15 15 15 15 15 14 14 14 13 13 13 13 13
16 16 16 16 12 12 13 13 14 16 18 20 20 20 20 20 21 21 21 20 20 20 18 17 17 17 17 17 16 16 16 16 16 16 16 16 15 15 15 15 14 14 14 14 13 13 13 13 13
15 15 16 12 11 12 14 14 14 17 19 19 20 21 20 21 21 21 21 20 20 19 18 17 17 17 17 17 17 17 16 16 16 16 16 16 16 15 15 15 14 14 14 14 14 13 13 13 13
14 15 14 11 12 12 14 16 15 16 18 19 20 20 20 20 21 21 21 20 19 19 18 17 17 17 17 17 17 17 17 17 17 17 17 16 16 16 15 15 14 14 14 14 14 14 14 14 14
14 14 11 10 11 13 13 15 16 16 17 19 19 19 20 20 20 21 21 20 19 19 18 17 17 17 17 17 17 17 17 17 17 17 17 17 17 16 16 15 14 14 14 14 14 14 14 14 14
13 11 10 11 12 13 13 15 16 16 17 18 19 19 20 21 20 21 20 19 19 18 18 17 17 17 17 17 17 17 17 17 17 17 17 17 17 16 16 15 15 14 14 14 14 14 14 14 14
12 9 10 11 12 13 14 16 16 16 16 18 20 19 20 20 20 20 20 19 18 17 17 17 17 17 17 17 17 18 17 17 17 17 17 17 17 17 16 15 15 14 14 14 14 14 14 14 14
12 9 10 10 12 13 15 17 18 18 18 19 20 19 20 21 20 20 19 18 17 17 17 17 18 18 18 18 17 18 18 17 17 17 17 17 17 16 16 15 15 14 14 14 14 14 14 13 13
12 9 9 10 12 14 15 16 18 18 18 19 19 20 20 20 19 19 18 17 17 17 17 17 18 18 18 18 17 17 17 17 17 17 17 17 17 16 16 15 15 14 14 14 14 14 13 13 13
11 9 10 12 12 14 15 16 17 17 17 18 18 19 20 20 19 19 19 18 18 18 17 17 17 18 18 18 18 18 18 17 17 17 17 17 16 16 16 15 15 14 14 14 14 13 13 13 13
9 9 11 12 14 15 15 15 16 16 16 17 17 18 19 18 18 18 19 20 20 19 18 18 17 17 17 18 18 18 18 18 17 17 17 16 16 16 15 15 15 14 14 14 13 13 13 13 13
9 10 11 13 14 14 14 15 15 15 17 17 17 17 17 17 17 18 18 19 19 19 19 18 18 17 17 17 17 17 18 18 17 17 17 16 16 15 15 15 14 14 14 13 13 13 13 13 13
9 11 12 13 14 14 14 14 14 15 16 16 17 17 16 16 16 17 17 17 18 19 19 18 18 18 17 17 17 17 17 17 17 17 16 16 16 15 15 15 14 14 13 13 13 13 13 13 13
10 11 12 12 13 13 13 13 13 14 16 16 16 16 16 16 16 16 16 17 18 18 18 18 18 18 17 17 17 17 17 17 17 17 16 16 16 15 15 14 14 14 13 13 13 12 12 12 12
11 10 10 11 12 12 13 12 11 15 15 15 16 16 16 16 16 17 17 17 18 18 18 18 18 17 17 17 17 17 16 16 16 16 16 16 15 15 14 14 14 13 13 13 12 12 12 12 12
10 10 9 11 11 12 12 11 12 15 14 14 15 16 16 17 17 17 17 17 17 17 17 17 17 17 17 17 17 16 16 16 16 16 16 15 15 15 14 14 14 13 13 12 12 12 12 12 12
9 8 9 10 11 11 11 10 11 14 13 13 14 15 16 17 17 17 17 17 17 17 17 17 17 17 17 17 17 17 16 16 16 16 15 15 15 15 14 14 13 13 12 12 12 12 12 12 12
8 8 9 9 10 10 9 9 10 13 12 12 14 15 15 16 17 17 17 17 17 17 17 17 17 17 17 17 17 16 16 16 16 16 15 15 15 15 14 14 13 13 12 12 12 12 12 11 11
8 8 8 9 10 10 9 9 10 11 11 11 13 14 15 15 16 16 17 17 17 17 17 17 17 17 17 17 17 16 16 16 16 16 16 15 15 15 14 14 13 13 12 12 12 12 12 11 11
8 8 8 9 9 10 8 8 9 9 10 11 12 13 14 15 15 15 16 16 16 17 17 17 17 17 17 17 17 17 17 17 17 16 16 16 15 15 14 14 14 13 12 12 12 12 12 11 11
8 8 8 9 9 8 8 9 9 9 10 10 11 12 13 13 14 15 15 15 16 16 16 16 17 17 17 17 17 16 16 16 16 16 16 16 15 15 15 14 14 14 13 13 12 12 12 12 11
8 9 9 9 8 7 8 8 8 9 8 8 9 11 12 13 13 14 14 15 15 15 16 16 16 16 16 16 16 16 16 16 16 17 16 16 16 15 15 15 14 14 13 13 12 12 12 12 11
8 8 8 8 7 7 7 7 8 8 9 9 9 10 11 12 13 13 14 14 14 15 15 15 16 16 16 16 16 16 16 16 16 16 16 16 16 15 15 15 14 14 13 13 12 12 12 11 11
8 7 6 5 6 6 6 7 8 8 9 9 9 10 10 11 12 13 13 14 14 14 14 15 15 15 15 15 15 15 15 15 15 15 16 16 15 15 15 15 14 14 13 13 13 12 11 11 11
8 7 6 6 5 6 6 6 7 8 9 9 9 9 10 11 11 12 13 13 13 14 14 14 14 15 15 15 15 15 15 15 15 15 15 15 15 15 15 15 14 14 13 13 12 12 11 11 10
7 7 6 6 6 5 5 5 6 8 8 9 9 9 10 11 11 11 12 12 12 13 13 13 13 14 14 14 14 14 14 14 14 14 14 14 15 15 15 15 14 14 13 12 12 11 10 10 9
6 6 6 5 4 5 5 5 6 8 8 8 9 9 10 10 11 11 11 11 11 12 12 12 12 13 13 13 13 13 13 13 13 13 13 13 14 14 14 13 13 13 12 11 11 10 10 9 8
7 5 4 4 5 6 7 6 7 8 8 8 7 8 10 10 10 10 10 10 10 10 11 11 11 11 12 12 12 12 12 12 12 12 12 12 12 13 13 12 12 11 11 10 10 9 8 7 7
6 6 5 4 4 5 6 8 8 8 8 8 8 9 9 10 9 9 9 9 9 9 9 10 10 10 10 11 11 11 11 11 11 11 11 11 11 11 11 11 10 10 10 9 8 7 7 6 5
6 5 4 4 4 3 4 6 8 8 8 8 8 9 10 9 9 8 8 8 8 8 8 9 9 9 9 9 10 10 10 10 10 10 10 10 10 10 10 9 9 9 8 8 7 6 5 5 4
Wind_Speed
4 3 3 4 5 3 5 7 5 5 5 3 3 4 5 7 6 4 2 8 11 13 15 19 19 18 18 18 18 18 18 17 16 15 14 12 11 10 8 8 8 8 9 10 12 13 13 13 13
2 2 5 5 5 3 7 7 7 7 5 6 4 1 2 4 1 4 5 7 12 13 15 17 19 18 18 18 19 18 17 16 15 14 13 12 11 10 9 8 8 9 11 12 13 13 13 13 12
2 4 5 5 6 8 8 7 9 5 6 4 4 2 3 3 3 6 6 10 12 10 14 17 20 18 18 19 19 18 17 16 15 14 13 12 11 10 10 10 10 12 13 13 13 13 12 12 11
4 4 5 4 9 9 8 4 4 5 6 3 3 6 4 3 4 6 9 12 12 9 13 18 20 19 18 18 18 17 17 16 15 14 13 12 11 11 11 12 12 12 13 13 12 12 11 10 9
4 4 4 4 9 7 6 6 3 4 5 4 4 5 4 6 3 9 13 13 13 9 11 17 19 18 18 18 17 17 17 16 15 14 13 12 12 12 12 12 11 11 11 12 11 10 10 9 8
4 4 5 8 10 6 5 5 3 5 5 4 3 3 4 2 5 12 14 13 11 10 10 15 18 17 17 17 17 17 17 16 15 14 14 13 13 12 12 11 11 10 10 10 9 9 8 8 8
5 5 7 8 8 8 6 6 6 6 7 6 4 4 4 3 7 12 13 11 10 8 8 11 14 16 16 16 17 17 17 16 15 15 14 13 13 12 12 11 11 10 9 9 8 8 7 7 7
5 6 6 6 7 7 4 6 5 8 9 4 8 8 7 6 11 12 12 10 10 8 7 8 12 13 14 14 15 16 16 16 15 14 14 13 12 12 11 10 9 9 9 8 7 7 7 7 8
4 4 7 8 8 5 4 5 3 2 4 2 6 6 4 11 15 14 11 9 11 10 7 7 8 11 12 13 14 15 15 15 15 14 15 14 11 10 10 8 8 8 8 7 7 7 8 8 9
5 6 8 6 6 4 2 3 2 2 2 2 1 2 4 16 18 17 16 16 16 15 12 8 8 8 11 12 12 13 13 13 13 13 14 13 11 9 8 8 8 7 7 7 7 7 8 9 9
7 7 5 5 3 2 0 1 1 0 3 3 1 2 8 14 17 17 17 16 16 15 14 12 9 8 9 8 10 10 11 11 12 13 14 13 10 8 7 7 6 6 6 6 6 8 8 8 9
6 5 5 4 2 1 1 2 3 4 5 1 2 2 8 14 16 16 16 15 14 14 15 13 11 9 9 9 8 9 8 9 10 13 15 12 8 7 6 6 6 6 6 6 6 7 8 8 8
6 3 3 4 4 3 3 5 4 7 7 4 2 2 6 9 10 9 8 9 11 14 15 14 13 12 9 7 7 8 8 9 11 13 14 14 9 6 6 6 7 6 7 7 7 7 7 7 7
7 5 4 3 3 3 5 6 5 9 5 4 2 2 3 5 6 6 8 11 13 14 14 14 14 13 10 10 8 7 10 11 12 13 15 16 13 9 7 6 6 7 8 8 8 7 6 5 6
5 4 4 6 5 4 3 9 9 9 5 6 7 6 6 6 7 8 9 10 12 13 13 15 15 14 13 12 10 9 11 13 11 13 16 17 15 13 10 6 5 8 10 10 9 8 7 5 5
6 5 4 4 5 6 6 12 5 8 7 9 9 8 8 8 8 9 9 9 10 10 12 14 14 15 15 14 11 8 11 12 12 14 16 18 18 16 12 7 6 11 12 10 6 5 4 4 4
4 5 6 3 2 3 8 8 6 4 5 9 9 9 8 9 9 9 9 9 10 11 12 13 14 15 17 16 12 9 9 10 12 14 15 17 19 18 14 8 9 12 9 6 6 4 4 4 4
7 5 5 6 2 1 6 8 10 7 6 9 10 9 8 9 11 9 8 9 9 9 10 12 13 14 14 12 9 8 8 9 10 12 14 17 18 19 16 10 10 12 7 6 6 5 3 3 5
8 7 5 4 2 2 6 10 13 10 8 10 11 10 10 10 9 8 8 8 7 8 9 11 13 13 11 10 12 12 13 12 11 11 15 18 18 19 16 9 9 10 10 10 9 5 5 3 3
6 5 3 1 2 2 5 10 11 9 8 9 10 10 10 8 7 6 6 6 7 8 9 10 12 12 12 13 13 9 9 9 11 9 10 16 17 18 16 13 12 11 9 10 10 7 5 3 4
5 6 5 2 3 3 5 9 7 5 3 4 4 5 6 7 7 6 5 5 4 6 7 8 10 11 12 12 8 5 4 3 5 8 11 12 16 18 17 15 13 13 13 13 12 10 9 6 3
6 5 5 3 2 3 4 5 8 5 5 4 5 5 5 5 5 5 4 4 4 5 5 6 7 9 10 10 10 12 12 13 13 12 12 12 14 15 16 15 14 14 12 12 12 10 7 7 5
4 5 5 3 3 2 1 2 9 4 2 4 5 6 6 5 4 5 5 5 4 4 3 4 5 6 7 8 11 13 14 13 9 7 9 10 10 12 13 14 13 14 12 12 12 10 8 6 6
8 7 6 5 3 3 4 5 7 3 3 3 5 7 7 7 6 5 5 5 5 4 3 3 3 5 5 7 9 12 14 13 10 9 11 10 8 8 11 12 12 12 11 12 11 11 11 7 7
5 6 3 2 1 5 2 4 9 6 4 3 3 5 6 6 7 8 9 9 9 8 7 6 5 6 6 6 9 11 13 13 14 14 13 12 9 9 13 13 12 11 10 10 10 10 9 8 9
5 6 6 5 4 4 2 6 8 5 4 1 0 2 5 7 7 8 8 8 8 9 9 8 8 8 7 7 9 10 11 10 10 12 11 13 11 11 11 11 10 10 10 10 10 8 8 7 8
6 4 4 5 2 2 5 6 8 1 2 3 3 5 7 8 8 8 8 8 8 9 9 8 9 10 9 9 8 8 9 10 10 9 9 7 6 6 9 10 10 10 11 11 11 9 9 9 8
5 7 5 5 4 3 5 5 4 3 2 2 5 7 8 8 8 8 8 8 8 8 8 9 8 9 10 9 8 7 7 7 7 7 8 7 8 9 11 11 11 11 11 11 10 10 10 10 8
5 4 5 4 4 4 3 5 4 6 4 0 5 7 7 8 7 7 7 8 8 8 8 9 9 9 9 8 7 5 4 4 5 6 7 8 9 11 12 12 13 13 12 12 11 11 11 11 8
5 6 6 5 4 4 2 7 4 4 2 2 6 8 7 7 6 5 6 7 8 8 9 8 9 8 8 7 5 3 1 2 5 6 8 10 11 11 12 13 13 13 13 12 13 12 11 10 9
Wind_Direction
21 24 71 61 58 57 240 243 236 264 250 254 252 219 194 179 178 208 117 139 137 144 157 157 156 155 154 152 148 144 142 140 138 135 133 130 127 125 124 127 135 137 130 127 125 119 113 107 105
50 69 63 70 119 205 252 237 229 232 260 310 296 233 253 232 172 131 143 159 144 145 154 155 154 155 155 152 148 146 145 144 142 140 138 136 135 132 127 124 125 125 125 121 116 113 111 108 106
87 52 99 106 162 197 228 229 226 267 292 282 298 293 247 271 171 169 172 154 141 141 148 153 153 155 154 152 151 151 150 149 146 144 142 143 143 138 131 123 117 115 118 117 114 113 111 109 106
98 64 68 139 214 217 208 227 195 316 331 335 330 307 284 338 188 170 147 148 139 134 144 153 154 156 155 155 156 156 156 153 151 149 149 148 147 141 133 123 117 115 117 118 116 115 112 109 105
67 101 131 210 231 236 225 243 253 294 306 335 347 291 281 352 96 130 142 149 144 137 143 154 155 158 160 161 162 162 160 158 156 155 154 153 151 143 137 132 127 124 123 122 120 118 115 110 103
79 97 157 215 234 242 230 210 234 263 265 287 259 251 279 28 125 142 147 150 147 144 144 155 157 160 164 166 167 167 166 164 162 161 159 157 154 148 145 143 139 134 131 128 127 123 116 108 102
135 142 187 204 229 245 234 187 205 236 259 245 208 223 280 162 154 147 147 143 141 141 143 152 158 161 166 169 170 170 168 167 166 166 163 160 157 155 153 151 148 144 140 133 130 123 114 106 100
152 145 184 204 209 239 216 185 208 202 242 222 175 190 237 188 155 145 140 142 146 148 151 153 156 160 165 170 171 171 169 169 170 168 162 159 158 160 160 157 154 148 143 136 131 122 110 99 96
115 139 201 202 193 226 212 198 225 218 233 232 203 221 252 143 151 148 148 155 165 170 170 163 159 161 164 168 173 173 173 173 172 168 163 158 159 163 163 162 158 153 148 143 135 122 107 96 94
151 196 214 204 191 186 191 196 252 334 280 269 255 337 119 150 163 166 169 174 180 185 185 177 170 166 165 171 172 172 172 175 172 167 163 161 162 163 161 165 163 155 146 140 133 119 107 103 100
180 205 208 234 218 189 192 294 317 251 256 225 243 289 156 168 175 181 183 184 186 187 189 188 181 174 172 171 169 171 171 172 170 170 168 165 163 162 159 159 157 150 141 126 116 105 107 108 113
185 223 210 225 233 190 215 284 295 219 230 210 258 247 171 182 188 191 192 191 188 190 195 193 188 183 182 177 175 174 173 173 173 176 174 167 162 162 162 163 160 151 143 132 119 113 112 109 116
202 226 215 241 274 264 236 237 253 253 252 283 332 113 168 193 203 206 203 199 197 199 199 198 194 193 187 181 182 183 183 183 182 181 182 178 172 170 172 171 169 164 157 147 135 129 122 116 117
201 213 259 267 260 256 243 256 230 253 252 256 267 234 210 219 222 216 205 202 204 207 205 202 201 198 192 193 193 189 191 189 187 188 189 187 184 180 176 174 175 175 171 162 151 144 134 125 123
158 178 256 250 225 232 231 266 231 239 243 254 257 256 252 241 230 225 219 211 210 210 207 205 205 201 200 200 199 197 196 194 196 197 195 193 192 188 184 178 179 181 173 158 143 132 123 119 115
138 160 222 250 204 204 193 258 254 239 229 249 255 255 255 253 238 238 232 224 218 212 209 209 206 204 205 205 203 202 199 199 202 200 198 198 197 194 187 185 187 180 168 157 144 137 122 126 129
155 185 203 249 208 198 205 254 261 259 229 253 260 258 257 263 257 243 238 232 224 214 211 209 207 205 206 206 205 203 199 203 205 203 203 203 200 196 192 191 186 173 164 160 158 145 140 148 145
178 168 179 212 275 230 240 262 278 276 248 255 265 265 257 256 258 251 235 232 231 223 217 214 211 210 206 204 203 203 205 209 206 207 208 202 201 197 194 190 180 171 165 167 162 146 124 133 141
152 155 179 219 282 285 261 271 274 271 258 256 261 263 262 258 258 258 249 240 234 229 221 216 213 213 203 199 205 208 214 213 212 211 208 204 200 195 193 188 179 177 181 179 165 142 135 131 140
136 140 167 278 342 321 295 279 270 259 245 241 251 261 263 268 275 265 253 238 226 226 225 223 220 216 208 207 207 207 208 214 214 211 207 205 200 195 194 189 187 185 180 173 172 155 143 141 165
169 164 169 191 354 25 334 298 289 296 293 290 276 271 278 269 274 280 274 257 237 233 229 228 227 223 216 212 206 193 185 185 195 208 213 208 201 197 196 192 187 186 184 185 183 173 158 156 172
194 175 155 140 68 321 13 308 295 311 334 337 327 322 306 294 288 292 297 293 270 254 247 237 235 231 226 215 206 202 208 214 213 213 213 207 200 198 196 191 187 187 187 186 185 178 166 149 159
143 120 116 113 121 327 299 227 285 327 345 347 342 342 334 323 319 319 312 298 293 287 276 259 251 243 235 222 215 214 219 221 216 206 202 202 200 197 193 189 187 188 188 185 179 173 169 162 159
120 88 71 60 80 259 218 192 279 267 230 309 334 347 355 1 4 2 358 358 349 342 332 315 292 271 250 231 224 221 224 221 211 203 204 203 197 195 193 188 189 187 184 180 178 174 173 167 156
126 117 94 26 351 247 193 205 252 263 259 254 299 338 353 7 14 12 9 4 358 352 345 339 325 301 282 253 238 230 229 223 219 213 210 203 198 200 198 190 188 183 177 170 164 163 164 155 149
160 147 161 186 214 270 191 234 256 274 293 234 221 338 4 11 9 6 359 354 349 346 344 338 326 309 295 272 254 243 233 228 227 218 210 206 206 202 189 185 179 168 160 159 153 149 144 138 134
134 141 143 125 111 279 259 272 301 291 75 67 22 8 6 359 357 353 348 348 344 340 336 330 320 309 301 286 269 254 240 230 225 216 206 199 188 170 163 162 157 152 149 147 143 138 133 129 123
134 140 117 130 159 259 288 267 236 196 166 5 2 355 343 344 346 345 344 340 336 332 328 328 321 308 301 295 283 271 249 231 219 198 186 174 160 150 149 149 146 143 140 137 131 128 125 122 118
126 116 111 110 144 168 275 282 220 190 178 311 325 322 321 327 331 333 333 330 327 329 332 332 329 322 316 311 304 286 257 218 192 179 170 158 147 146 148 145 140 138 135 131 126 124 123 117 114
148 155 144 149 190 172 203 271 290 195 199 292 307 311 318 322 323 325 327 328 331 332 333 333 332 328 322 319 317 305 256 164 156 151 144 140 139 138 137 135 133 131 129 126 124 124 121 122 122
Height
1513 1515 1517 1520 1524 1534 1534 1524 1517 1513 1509 1506 1505 1504 1503 1504 1508 1509 1502 1501 1505 1508 1511 1515 1518 1521 1524 1527 1529 1531 1533 1534 1536 1537 1538 1538 1539 1539 1540 1540 1541 1542 1543 1545 1546 1547 1548 1549 1549
1511 1514 1517 1518 1528 1538 1532 1520 1515 1509 1506 1505 1503 1502 1501 1500 1500 1500 1499 1501 1506 1509 1511 1515 1518 1521 1524 1526 1529 1531 1533 1534 1535 1536 1537 1538 1538 1539 1539 1540 1541 1543 1544 1546 1547 1548 1549 1550 1550
1509 1512 1515 1519 1528 1530 1522 1512 1509 1506 1506 1504 1503 1501 1501 1500 1500 1500 1501 1503 1506 1509 1512 1515 1518 1521 1524 1526 1528 1530 1532 1534 1535 1536 1537 1537 1537 1538 1539 1540 1542 1543 1545 1547 1548 1550 1550 1551 1551
1508 1511 1514 1521 1521 1515 1510 1506 1506 1506 1504 1504 1504 1502 1501 1501 1500 1501 1502 1504 1507 1510 1513 1516 1519 1521 1524 1526 1528 1530 1532 1533 1535 1535 1536 1537 1537 1538 1539 1541 1542 1544 1546 1548 1549 1551 1551 1552 1552
1506 1508 1516 1520 1515 1508 1505 1504 1505 1505 1505 1504 1505 1503 1501 1501 1501 1502 1503 1505 1507 1510 1513 1516 1519 1522 1524 1526 1528 1530 1532 1533 1534 1535 1536 1537 1538 1539 1540 1541 1543 1545 1547 1549 1550 1551 1552 1553 1553
1504 1506 1516 1517 1510 1503 1502 1502 1503 1503 1503 1504 1504 1503 1500 1501 1501 1503 1504 1506 1509 1511 1514 1516 1519 1522 1524 1526 1528 1530 1531 1533 1534 1536 1537 1538 1539 1540 1541 1542 1544 1546 1548 1549 1551 1552 1553 1553 1554
1502 1506 1510 1509 1505 1502 1499 1499 1501 1500 1501 1502 1503 1502 1499 1500 1501 1503 1505 1508 1510 1512 1514 1517 1519 1522 1524 1526 1528 1529 1531 1533 1534 1536 1537 1538 1539 1541 1542 1543 1545 1547 1549 1550 1551 1552 1553 1554 1554
1498 1503 1505 1506 1503 1499 1495 1496 1496 1497 1497 1499 1501 1500 1498 1499 1500 1502 1505 1508 1510 1512 1514 1516 1519 1521 1523 1525 1527 1529 1531 1532 1534 1536 1537 1538 1540 1541 1542 1544 1545 1547 1549 1550 1551 1552 1553 1554 1555
1496 1504 1503 1500 1499 1495 1493 1494 1494 1494 1495 1496 1497 1497 1497 1498 1499 1501 1504 1507 1509 1511 1513 1516 1518 1521 1523 1525 1527 1528 1530 1532 1533 1535 1537 1538 1540 1541 1543 1544 1546 1547 1549 1550 1551 1552 1553 1554 1555
1494 1499 1495 1492 1491 1491 1491 1492 1492 1493 1493 1493 1494 1495 1495 1496 1497 1499 1501 1503 1506 1508 1511 1514 1517 1519 1521 1523 1525 1527 1529 1531 1533 1534 1536 1538 1540 1541 1542 1544 1545 1547 1548 1550 1551 1552 1553 1554 1555
1490 1492 1490 1489 1489 1489 1490 1491 1491 1492 1492 1492 1492 1492 1492 1494 1496 1497 1499 1501 1504 1507 1510 1512 1515 1518 1520 1522 1524 1526 1528 1530 1531 1533 1535 1537 1539 1540 1542 1543 1545 1546 1548 1549 1550 1551 1553 1554 1555
1488 1487 1487 1487 1488 1489 1490 1490 1490 1490 1491 1491 1491 1491 1491 1492 1494 1496 1498 1500 1503 1505 1508 1511 1514 1516 1518 1520 1522 1524 1526 1528 1530 1532 1534 1536 1537 1539 1541 1543 1544 1546 1547 1549 1550 1551 1552 1553 1554
1486 1485 1486 1486 1487 1487 1488 1489 1489 1488 1489 1490 1491 1491 1491 1493 1494 1496 1498 1500 1502 1504 1506 1509 1511 1513 1516 1518 1520 1522 1524 1526 1528 1530 1532 1534 1536 1538 1540 1541 1543 1545 1546 1548 1549 1550 1551 1552 1553
1482 1484 1484 1485 1485 1486 1487 1486 1487 1484 1487 1488 1489 1490 1491 1493 1494 1496 1497 1499 1500 1502 1505 1507 1509 1511 1513 1515 1517 1519 1522 1524 1526 1527 1529 1532 1534 1536 1538 1540 1541 1543 1545 1546 1548 1549 1550 1551 1551
1480 1483 1484 1483 1483 1484 1485 1484 1482 1482 1484 1484 1486 1487 1489 1491 1492 1494 1495 1497 1499 1501 1503 1505 1506 1509 1510 1512 1515 1517 1519 1521 1523 1525 1527 1529 1531 1533 1535 1537 1539 1541 1542 1544 1545 1547 1548 1549 1549
1479 1483 1486 1481 1481 1481 1487 1483 1478 1478 1479 1480 1481 1483 1485 1487 1489 1491 1492 1494 1496 1497 1499 1501 1503 1505 1507 1509 1511 1513 1515 1517 1519 1521 1523 1525 1527 1530 1532 1534 1536 1538 1540 1541 1543 1544 1545 1546 1547
1479 1485 1485 1482 1479 1479 1482 1480 1476 1475 1476 1476 1477 1478 1480 1481 1484 1486 1488 1490 1491 1493 1495 1497 1499 1501 1503 1505 1507 1509 1511 1513 1515 1517 1519 1521 1523 1526 1528 1530 1533 1535 1536 1538 1540 1541 1543 1544 1545
1480 1482 1483 1483 1479 1479 1480 1479 1474 1472 1473 1473 1472 1473 1474 1475 1477 1481 1483 1485 1486 1488 1490 1492 1494 1496 1498 1501 1503 1504 1506 1508 1510 1512 1514 1517 1519 1521 1524 1526 1529 1531 1532 1534 1536 1538 1539 1541 1542
1475 1479 1481 1481 1479 1479 1479 1477 1471 1468 1469 1468 1468 1468 1468 1470 1472 1474 1476 1478 1480 1482 1484 1486 1488 1490 1492 1494 1496 1497 1499 1502 1504 1507 1509 1511 1514 1516 1519 1521 1524 1526 1528 1530 1532 1534 1535 1536 1538
1474 1479 1481 1480 1479 1479 1479 1475 1467 1464 1463 1463 1462 1462 1463 1464 1465 1467 1469 1471 1473 1475 1477 1479 1481 1484 1485 1487 1489 1491 1494 1496 1498 1501 1503 1506 1508 1510 1513 1515 1517 1520 1522 1525 1527 1528 1530 1532 1533
1474 1477 1480 1481 1480 1481 1481 1473 1466 1460 1460 1459 1459 1458 1458 1459 1460 1461 1463 1465 1467 1469 1471 1473 1475 1477 1479 1481 1484 1485 1487 1488 1491 1493 1496 1498 1501 1504 1506 1509 1511 1514 1516 1518 1520 1523 1525 1526 1528
1473 1474 1476 1479 1484 1487 1486 1485 1469 1463 1461 1458 1457 1456 1455 1456 1457 1458 1459 1460 1461 1463 1465 1467 1469 1471 1473 1475 1476 1477 1478 1479 1482 1485 1488 1491 1494 1497 1499 1502 1504 1507 1509 1511 1514 1516 1518 1521 1522
1471 1473 1477 1482 1486 1489 1488 1487 1472 1465 1462 1459 1457 1456 1454 1454 1454 1455 1456 1457 1458 1459 1460 1462 1463 1465 1466 1468 1469 1470 1471 1473 1475 1478 1480 1483 1486 1489 1491 1494 1497 1499 1502 1504 1507 1509 1512 1514 1516
1471 1478 1484 1488 1490 1492 1487 1488 1475 1467 1462 1460 1458 1456 1454 1453 1453 1454 1454 1454 1455 1455 1456 1457 1458 1459 1460 1461 1462 1462 1463 1465 1467 1469 1472 1474 1477 1480 1483 1486 1489 1492 1494 1497 1500 1503 1505 1508 1510
1472 1480 1489 1492 1497 1493 1488 1488 1475 1463 1461 1460 1459 1457 1455 1454 1453 1453 1452 1452 1452 1452 1452 1453 1453 1454 1454 1455 1455 1456 1456 1458 1459 1461 1463 1466 1468 1471 1474 1477 1480 1483 1487 1490 1493 1496 1498 1501 1503
1472 1476 1485 1489 1492 1491 1489 1487 1471 1462 1459 1458 1458 1457 1455 1454 1453 1453 1452 1451 1450 1449 1449 1448 1448 1448 1448 1448 1448 1448 1449 1450 1451 1453 1455 1457 1460 1463 1467 1470 1473 1476 1479 1483 1486 1489 1492 1494 1497
1473 1478 1480 1490 1494 1494 1486 1480 1468 1459 1459 1458 1458 1456 1455 1454 1453 1452 1450 1449 1448 1447 1445 1444 1442 1442 1441 1441 1440 1440 1441 1441 1443 1445 1447 1450 1453 1456 1459 1462 1465 1469 1473 1476 1479 1482 1485 1488 1490
1470 1476 1484 1490 1490 1485 1478 1476 1469 1461 1460 1459 1458 1456 1454 1453 1452 1450 1448 1447 1445 1444 1442 1440 1438 1436 1435 1434 1433 1432 1432 1434 1435 1437 1440 1442 1445 1448 1451 1455 1459 1463 1467 1470 1473 1476 1479 1482 1485
1473 1477 1482 1489 1490 1492 1481 1469 1459 1459 1458 1458 1457 1455 1454 1452 1450 1448 1446 1445 1443 1440 1438 1435 1433 1431 1429 1427 1426 1425 1425 1426 1428 1430 1433 1436 1439 1442 1446 1450 1453 1457 1461 1465 1468 1472 1474 1477 1481
1469 1473 1479 1486 1492 1496 1495 1477 1456 1456 1456 1456 1455 1453 1452 1450 1448 1446 1444 1442 1439 1437 1434 1432 1429 1426 1424 1422 1420 1419 1419 1420 1422 1424 1427 1431 1434 1438 1441 1445 1449 1453 1457 1461 1464 1468 1471 1474 1477